Starlink 11583

operational
NORAD ID: 62991 Int'l Des: 2025-031 Owner: SPXS Country: US Constellation: starlink
LEOCIRCULAR

Starlink 11583について

説明を読み込み中...

リアルタイム位置

3D地球を読み込み中...

次回通過

高度履歴

Altitude vs Time

uPlot chart will show altitude changes over time

軌道要素

1 62991U 25031L 26035.46164745 .00249161 00000-0 18759-2 0 9996
2 62991 42.9971 201.9988 0001249 201.6679 158.4136 15.70989027 57520
Epoch: Feb 4, 2026 • Age: 8 hours

現在のステータス

高度 356.0 km
速度 7.70 km/s
衛星直下点 30.46°N, 82.9°W
打ち上げ日 Feb 11, 2025
運用期間 0.9 years
タイプ internet

技術仕様

分類 Payload
質量 960.00 kg
乾燥質量 910.00 kg
総質量 960.00 kg
長さ 0.30 m
直径 4.10 m
スパン 29.00 m
形状 Box + pan
製造者 SPXS
バスタイプ Starlink V2MD
フェーズステータス In Orbit
所有者/国 SPXS/US

大規模コンステレーション

Loading constellations...